Year,Month,Day,Hour,Minute,Value (Times are PST for temperature in C)
2016,03,31,00,00,9.90
2016,03,31,00,01,9.90
2016,03,31,00,02,9.90
2016,03,31,00,03,9.90
2016,03,31,00,04,9.90
2016,03,31,00,05,9.90
2016,03,31,00,06,9.90
2016,03,31,00,07,9.80
2016,03,31,00,08,9.80
2016,03,31,00,09,9.80
2016,03,31,00,10,9.80
2016,03,31,00,11,9.80
2016,03,31,00,12,9.70
2016,03,31,00,13,9.70
2016,03,31,00,14,9.70
2016,03,31,00,15,9.70
2016,03,31,00,16,9.80
2016,03,31,00,17,9.80
2016,03,31,00,18,9.70
2016,03,31,00,19,9.70
2016,03,31,00,20,9.70
2016,03,31,00,21,9.80
2016,03,31,00,22,9.80
2016,03,31,00,23,9.80
2016,03,31,00,24,9.80
2016,03,31,00,25,9.70
2016,03,31,00,26,9.70
2016,03,31,00,27,9.70
2016,03,31,00,28,9.80
2016,03,31,00,29,9.80
2016,03,31,00,30,9.80
2016,03,31,00,31,9.80
2016,03,31,00,32,9.80
2016,03,31,00,33,9.80
2016,03,31,00,34,9.80
2016,03,31,00,35,9.70
2016,03,31,00,36,9.70
2016,03,31,00,37,9.70
2016,03,31,00,38,9.70
2016,03,31,00,39,9.60
2016,03,31,00,40,9.60
2016,03,31,00,41,9.60
2016,03,31,00,42,9.50
2016,03,31,00,43,9.40
2016,03,31,00,44,9.40
2016,03,31,00,45,9.40
2016,03,31,00,46,9.40
2016,03,31,00,47,9.40
2016,03,31,00,48,9.40
2016,03,31,00,49,9.40
2016,03,31,00,50,9.40
2016,03,31,00,51,9.30
2016,03,31,00,52,9.30
2016,03,31,00,53,9.30
2016,03,31,00,54,9.30
2016,03,31,00,55,9.40
2016,03,31,00,56,9.40
2016,03,31,00,57,9.40
2016,03,31,00,58,9.40
2016,03,31,00,59,9.40
2016,03,31,01,00,9.40
2016,03,31,01,01,9.40
2016,03,31,01,02,9.30
2016,03,31,01,03,9.30
2016,03,31,01,04,9.30
2016,03,31,01,05,9.30
2016,03,31,01,06,9.30
2016,03,31,01,07,9.30
2016,03,31,01,08,9.30
2016,03,31,01,09,9.30
2016,03,31,01,10,9.30
2016,03,31,01,11,9.30
2016,03,31,01,12,9.30
2016,03,31,01,13,9.30
2016,03,31,01,14,9.20
2016,03,31,01,15,9.20
2016,03,31,01,16,9.20
2016,03,31,01,17,9.20
2016,03,31,01,18,9.10
2016,03,31,01,19,9.10
2016,03,31,01,20,9.10
2016,03,31,01,21,9.10
2016,03,31,01,22,9.10
2016,03,31,01,23,9.10
2016,03,31,01,24,9.10
2016,03,31,01,25,9.10
2016,03,31,01,26,9.10
2016,03,31,01,27,9.10
2016,03,31,01,28,9.10
2016,03,31,01,29,9.10
2016,03,31,01,30,9.10
2016,03,31,01,31,9.00
2016,03,31,01,32,9.00
2016,03,31,01,33,9.00
2016,03,31,01,34,9.00
2016,03,31,01,35,8.90
2016,03,31,01,36,8.90
2016,03,31,01,37,8.90
2016,03,31,01,38,8.90
2016,03,31,01,39,8.90
2016,03,31,01,40,8.90
2016,03,31,01,41,8.90
2016,03,31,01,42,8.90
2016,03,31,01,43,8.90
2016,03,31,01,44,8.90
2016,03,31,01,45,8.90
2016,03,31,01,46,8.90
2016,03,31,01,47,8.90
2016,03,31,01,48,8.90
2016,03,31,01,49,8.90
2016,03,31,01,50,8.90
2016,03,31,01,51,8.90
2016,03,31,01,52,8.90
2016,03,31,01,53,9.00
2016,03,31,01,54,9.00
2016,03,31,01,55,9.00
2016,03,31,01,56,9.00
2016,03,31,01,57,9.00
2016,03,31,01,58,9.00
2016,03,31,01,59,9.00
2016,03,31,02,00,9.00
2016,03,31,02,01,9.10
2016,03,31,02,02,9.00
2016,03,31,02,03,9.00
2016,03,31,02,04,9.00
2016,03,31,02,05,9.00
2016,03,31,02,06,9.00
2016,03,31,02,07,8.90
2016,03,31,02,08,8.90
2016,03,31,02,09,8.90
2016,03,31,02,10,8.80
2016,03,31,02,11,8.80
2016,03,31,02,12,8.80
2016,03,31,02,13,8.80
2016,03,31,02,14,8.80
2016,03,31,02,15,8.70
2016,03,31,02,16,8.70
2016,03,31,02,17,8.70
2016,03,31,02,18,8.70
2016,03,31,02,19,8.60
2016,03,31,02,20,8.60
2016,03,31,02,21,8.60
2016,03,31,02,22,8.60
2016,03,31,02,23,8.60
2016,03,31,02,24,8.60
2016,03,31,02,25,8.60
2016,03,31,02,26,8.70
2016,03,31,02,27,8.70
2016,03,31,02,28,8.70
2016,03,31,02,29,8.70
2016,03,31,02,30,8.80
2016,03,31,02,31,8.80
2016,03,31,02,32,8.80
2016,03,31,02,33,8.70
2016,03,31,02,34,8.70
2016,03,31,02,35,8.70
2016,03,31,02,36,8.70
2016,03,31,02,37,8.70
2016,03,31,02,38,8.70
2016,03,31,02,39,8.70
2016,03,31,02,40,8.70
2016,03,31,02,41,8.70
2016,03,31,02,42,8.70
2016,03,31,02,43,8.70
2016,03,31,02,44,8.70
2016,03,31,02,45,8.70
2016,03,31,02,46,8.70
2016,03,31,02,47,8.70
2016,03,31,02,48,8.70
2016,03,31,02,49,8.70
2016,03,31,02,50,8.70
2016,03,31,02,51,8.70
2016,03,31,02,52,8.70
2016,03,31,02,53,8.70
2016,03,31,02,54,8.80
2016,03,31,02,55,8.80
2016,03,31,02,56,8.80
2016,03,31,02,57,8.80
2016,03,31,02,58,8.80
2016,03,31,02,59,8.80
2016,03,31,03,00,8.90
2016,03,31,03,01,8.90
2016,03,31,03,02,8.80
2016,03,31,03,03,8.80
2016,03,31,03,04,8.80
2016,03,31,03,05,8.80
2016,03,31,03,06,8.80
2016,03,31,03,07,8.80
2016,03,31,03,08,8.80
2016,03,31,03,09,8.70
2016,03,31,03,10,8.80
2016,03,31,03,11,8.80
2016,03,31,03,12,8.80
2016,03,31,03,13,8.80
2016,03,31,03,14,8.80
2016,03,31,03,15,8.80
2016,03,31,03,16,8.80
2016,03,31,03,17,8.80
2016,03,31,03,18,8.80
2016,03,31,03,19,8.70
2016,03,31,03,20,8.70
2016,03,31,03,21,8.70
2016,03,31,03,22,8.70
2016,03,31,03,23,8.70
2016,03,31,03,24,8.60
2016,03,31,03,25,8.70
2016,03,31,03,26,8.70
2016,03,31,03,27,8.70
2016,03,31,03,28,8.70
2016,03,31,03,29,8.70
2016,03,31,03,30,8.70
2016,03,31,03,31,8.80
2016,03,31,03,32,8.80
2016,03,31,03,33,8.80
2016,03,31,03,34,8.80
2016,03,31,03,35,8.80
2016,03,31,03,36,8.80
2016,03,31,03,37,8.80
2016,03,31,03,38,8.80
2016,03,31,03,39,8.80
2016,03,31,03,40,8.70
2016,03,31,03,41,8.70
2016,03,31,03,42,8.70
2016,03,31,03,43,8.70
2016,03,31,03,44,8.70
2016,03,31,03,45,8.80
2016,03,31,03,46,8.80
2016,03,31,03,47,8.80
2016,03,31,03,48,8.80
2016,03,31,03,49,8.80
2016,03,31,03,50,8.80
2016,03,31,03,51,8.80
2016,03,31,03,52,8.80
2016,03,31,03,53,8.70
2016,03,31,03,54,8.70
2016,03,31,03,55,8.70
2016,03,31,03,56,8.70
2016,03,31,03,57,8.70
2016,03,31,03,58,8.80
2016,03,31,03,59,8.80
2016,03,31,04,00,8.80
2016,03,31,04,01,8.80
2016,03,31,04,02,8.80
2016,03,31,04,03,8.80
2016,03,31,04,04,8.80
2016,03,31,04,05,8.80
2016,03,31,04,06,8.80
2016,03,31,04,07,8.90
2016,03,31,04,08,8.90
2016,03,31,04,09,8.90
2016,03,31,04,10,8.90
2016,03,31,04,11,8.80
2016,03,31,04,12,8.80
2016,03,31,04,13,8.80
2016,03,31,04,14,8.80
2016,03,31,04,15,8.80
2016,03,31,04,16,8.80
2016,03,31,04,17,8.80
2016,03,31,04,18,8.80
2016,03,31,04,19,8.80
2016,03,31,04,20,8.80
2016,03,31,04,21,8.80
2016,03,31,04,22,8.80
2016,03,31,04,23,8.70
2016,03,31,04,24,8.70
2016,03,31,04,25,8.70
2016,03,31,04,26,8.70
2016,03,31,04,27,8.70
2016,03,31,04,28,8.70
2016,03,31,04,29,8.60
2016,03,31,04,30,8.60
2016,03,31,04,31,8.60
2016,03,31,04,32,8.60
2016,03,31,04,33,8.60
2016,03,31,04,34,8.60
2016,03,31,04,35,8.60
2016,03,31,04,36,8.60
2016,03,31,04,37,8.60
2016,03,31,04,38,8.60
2016,03,31,04,39,8.60
2016,03,31,04,40,8.60
2016,03,31,04,41,8.60
2016,03,31,04,42,8.60
2016,03,31,04,43,8.70
2016,03,31,04,44,8.70
2016,03,31,04,45,8.70
2016,03,31,04,46,8.70
2016,03,31,04,47,8.70
2016,03,31,04,48,8.70
2016,03,31,04,49,8.70
2016,03,31,04,50,8.60
2016,03,31,04,51,8.60
2016,03,31,04,52,8.60
2016,03,31,04,53,8.60
2016,03,31,04,54,8.60
2016,03,31,04,55,8.60
2016,03,31,04,56,8.60
2016,03,31,04,57,8.60
2016,03,31,04,58,8.60
2016,03,31,04,59,8.60
2016,03,31,05,00,8.60
2016,03,31,05,01,8.60
2016,03,31,05,02,8.60
2016,03,31,05,03,8.60
2016,03,31,05,04,8.60
2016,03,31,05,05,8.60
2016,03,31,05,06,8.60
2016,03,31,05,07,8.60
2016,03,31,05,08,8.50
2016,03,31,05,09,8.50
2016,03,31,05,10,8.50
2016,03,31,05,11,8.40
2016,03,31,05,12,8.40
2016,03,31,05,13,8.40
2016,03,31,05,14,8.40
2016,03,31,05,15,8.40
2016,03,31,05,16,8.30
2016,03,31,05,17,8.30
2016,03,31,05,18,8.30
2016,03,31,05,19,8.30
2016,03,31,05,20,8.30
2016,03,31,05,21,8.30
2016,03,31,05,22,8.30
2016,03,31,05,23,8.30
2016,03,31,05,24,8.30
2016,03,31,05,25,8.30
2016,03,31,05,26,8.30
2016,03,31,05,27,8.30
2016,03,31,05,28,8.30
2016,03,31,05,29,8.30
2016,03,31,05,30,8.30
2016,03,31,05,31,8.30
2016,03,31,05,32,8.30
2016,03,31,05,33,8.30
2016,03,31,05,34,8.30
2016,03,31,05,35,8.30
2016,03,31,05,36,8.30
2016,03,31,05,37,8.30
2016,03,31,05,38,8.30
2016,03,31,05,39,8.30
2016,03,31,05,40,8.30
2016,03,31,05,41,8.30
2016,03,31,05,42,8.20
2016,03,31,05,43,8.30
2016,03,31,05,44,8.30
2016,03,31,05,45,8.30
2016,03,31,05,46,8.30
2016,03,31,05,47,8.30
2016,03,31,05,48,8.30
2016,03,31,05,49,8.30
2016,03,31,05,50,8.30
2016,03,31,05,51,8.30
2016,03,31,05,52,8.30
2016,03,31,05,53,8.30
2016,03,31,05,54,8.30
2016,03,31,05,55,8.20
2016,03,31,05,56,8.20
2016,03,31,05,57,8.20
2016,03,31,05,58,8.20
2016,03,31,05,59,8.20
2016,03,31,06,00,8.10
2016,03,31,06,01,8.10
2016,03,31,06,02,8.10
2016,03,31,06,03,8.10
2016,03,31,06,04,8.10
2016,03,31,06,05,8.10
2016,03,31,06,06,8.10
2016,03,31,06,07,8.10
2016,03,31,06,08,8.10
2016,03,31,06,09,8.10
2016,03,31,06,10,8.10
2016,03,31,06,11,8.20
2016,03,31,06,12,8.20
2016,03,31,06,13,8.20
2016,03,31,06,14,8.20
2016,03,31,06,15,8.20
2016,03,31,06,16,8.20
2016,03,31,06,17,8.20
2016,03,31,06,18,8.20
2016,03,31,06,19,8.20
2016,03,31,06,20,8.20
2016,03,31,06,21,8.20
2016,03,31,06,22,8.20
2016,03,31,06,23,8.10
2016,03,31,06,24,8.10
2016,03,31,06,25,8.10
2016,03,31,06,26,8.10
2016,03,31,06,27,8.10
2016,03,31,06,28,8.10
2016,03,31,06,29,8.10
2016,03,31,06,30,8.10
2016,03,31,06,31,8.10
2016,03,31,06,32,8.10
2016,03,31,06,33,8.10
2016,03,31,06,34,8.20
2016,03,31,06,35,8.20
2016,03,31,06,36,8.20
2016,03,31,06,37,8.20
2016,03,31,06,38,8.20
2016,03,31,06,39,8.20
2016,03,31,06,40,8.30
2016,03,31,06,41,8.30
2016,03,31,06,42,8.30
2016,03,31,06,43,8.30
2016,03,31,06,44,8.30
2016,03,31,06,45,8.30
2016,03,31,06,46,8.30
2016,03,31,06,47,8.30
2016,03,31,06,48,8.30
2016,03,31,06,49,8.30
2016,03,31,06,50,8.30
2016,03,31,06,51,8.30
2016,03,31,06,52,8.30
2016,03,31,06,53,8.40
2016,03,31,06,54,8.30
2016,03,31,06,55,8.40
2016,03,31,06,56,8.40
2016,03,31,06,57,8.40
2016,03,31,06,58,8.40
2016,03,31,06,59,8.40
2016,03,31,07,00,8.30
2016,03,31,07,01,8.30
2016,03,31,07,02,8.30
2016,03,31,07,03,8.30
2016,03,31,07,04,8.30
2016,03,31,07,05,8.30
2016,03,31,07,06,8.30
2016,03,31,07,07,8.20
2016,03,31,07,08,8.20
2016,03,31,07,09,8.20
2016,03,31,07,10,8.20
2016,03,31,07,11,8.20
2016,03,31,07,12,8.20
2016,03,31,07,13,8.10
2016,03,31,07,14,8.10
2016,03,31,07,15,8.10
2016,03,31,07,16,8.10
2016,03,31,07,17,8.20
2016,03,31,07,18,8.20
2016,03,31,07,19,8.20
2016,03,31,07,20,8.10
2016,03,31,07,21,8.10
2016,03,31,07,22,8.10
2016,03,31,07,23,8.10
2016,03,31,07,24,8.10
2016,03,31,07,25,8.10
2016,03,31,07,26,8.10
2016,03,31,07,27,8.10
2016,03,31,07,28,8.10
2016,03,31,07,29,8.10
2016,03,31,07,30,8.10
2016,03,31,07,31,8.00
2016,03,31,07,32,8.00
2016,03,31,07,33,8.00
2016,03,31,07,34,8.00
2016,03,31,07,35,8.00
2016,03,31,07,36,8.10
2016,03,31,07,37,8.10
2016,03,31,07,38,8.10
2016,03,31,07,39,8.10
2016,03,31,07,40,8.10
2016,03,31,07,41,8.10
2016,03,31,07,42,8.20
2016,03,31,07,43,8.20
2016,03,31,07,44,8.20
2016,03,31,07,45,8.10
2016,03,31,07,46,8.10
2016,03,31,07,47,8.10
2016,03,31,07,48,8.10
2016,03,31,07,49,8.10
2016,03,31,07,50,8.10
2016,03,31,07,51,8.10
2016,03,31,07,52,8.10
2016,03,31,07,53,8.10
2016,03,31,07,54,8.10
2016,03,31,07,55,8.10
2016,03,31,07,56,8.10
2016,03,31,07,57,8.10
2016,03,31,07,58,8.10
2016,03,31,07,59,8.10
2016,03,31,08,00,8.10
2016,03,31,08,01,8.20
2016,03,31,08,02,8.20
2016,03,31,08,03,8.20
2016,03,31,08,04,8.20
2016,03,31,08,05,8.20
2016,03,31,08,06,8.20
2016,03,31,08,07,8.30
2016,03,31,08,08,8.30
2016,03,31,08,09,8.30
2016,03,31,08,10,8.30
2016,03,31,08,11,8.30
2016,03,31,08,12,8.30
2016,03,31,08,13,8.40
2016,03,31,08,14,8.40
2016,03,31,08,15,8.40
2016,03,31,08,16,8.40
2016,03,31,08,17,8.40
2016,03,31,08,18,8.40
2016,03,31,08,19,8.50
2016,03,31,08,20,8.50
2016,03,31,08,21,8.50
2016,03,31,08,22,8.60
2016,03,31,08,23,8.60
2016,03,31,08,24,8.60
2016,03,31,08,25,8.60
2016,03,31,08,26,8.70
2016,03,31,08,27,8.70
2016,03,31,08,28,8.80
2016,03,31,08,29,8.80
2016,03,31,08,30,8.80
2016,03,31,08,31,8.90
2016,03,31,08,32,8.90
2016,03,31,08,33,9.00
2016,03,31,08,34,9.10
2016,03,31,08,35,9.10
2016,03,31,08,36,9.20
2016,03,31,08,37,9.20
2016,03,31,08,38,9.20
2016,03,31,08,39,9.30
2016,03,31,08,40,9.30
2016,03,31,08,41,9.30
2016,03,31,08,42,9.40
2016,03,31,08,43,9.40
2016,03,31,08,44,9.50
2016,03,31,08,45,9.50
2016,03,31,08,46,9.60
2016,03,31,08,47,9.60
2016,03,31,08,48,9.70
2016,03,31,08,49,9.80
2016,03,31,08,50,9.90
2016,03,31,08,51,9.90
2016,03,31,08,52,10.00
2016,03,31,08,53,10.10
2016,03,31,08,54,10.10
2016,03,31,08,55,10.10
2016,03,31,08,56,10.20
2016,03,31,08,57,10.20
2016,03,31,08,58,10.30
2016,03,31,08,59,10.30
2016,03,31,09,00,10.30
2016,03,31,09,01,10.30
2016,03,31,09,02,10.40
2016,03,31,09,03,10.40
2016,03,31,09,04,10.40
2016,03,31,09,05,10.40
2016,03,31,09,06,10.50
2016,03,31,09,07,10.60
2016,03,31,09,08,10.60
2016,03,31,09,09,10.60
2016,03,31,09,10,10.70
2016,03,31,09,11,10.70
2016,03,31,09,12,10.70
2016,03,31,09,13,10.80
2016,03,31,09,14,10.80
2016,03,31,09,15,10.80
2016,03,31,09,16,10.80
2016,03,31,09,17,10.80
2016,03,31,09,18,10.80
2016,03,31,09,19,10.90
2016,03,31,09,20,11.00
2016,03,31,09,21,11.00
2016,03,31,09,22,11.00
2016,03,31,09,23,11.00
2016,03,31,09,24,11.10
2016,03,31,09,25,11.10
2016,03,31,09,26,11.10
2016,03,31,09,27,11.10
2016,03,31,09,28,11.10
2016,03,31,09,29,11.10
2016,03,31,09,30,11.20
2016,03,31,09,31,11.20
2016,03,31,09,32,11.30
2016,03,31,09,33,11.30
2016,03,31,09,34,11.30
2016,03,31,09,35,11.30
2016,03,31,09,36,11.30
2016,03,31,09,37,11.30
2016,03,31,09,38,11.30
2016,03,31,09,39,11.40
2016,03,31,09,40,11.40
2016,03,31,09,41,11.40
2016,03,31,09,42,11.40
2016,03,31,09,43,11.50
2016,03,31,09,44,11.50
2016,03,31,09,45,11.60
2016,03,31,09,46,11.60
2016,03,31,09,47,11.60
2016,03,31,09,48,11.70
2016,03,31,09,49,11.70
2016,03,31,09,50,11.70
2016,03,31,09,51,11.70
2016,03,31,09,52,11.70
2016,03,31,09,53,11.80
2016,03,31,09,54,11.80
2016,03,31,09,55,11.70
2016,03,31,09,56,11.70
2016,03,31,09,57,11.70
2016,03,31,09,58,11.70
2016,03,31,09,59,11.80
2016,03,31,10,00,11.80
2016,03,31,10,01,11.80
2016,03,31,10,02,11.90
2016,03,31,10,03,11.90
2016,03,31,10,04,11.90
2016,03,31,10,05,12.00
2016,03,31,10,06,12.00
2016,03,31,10,07,12.10
2016,03,31,10,08,12.10
2016,03,31,10,09,12.10
2016,03,31,10,10,12.20
2016,03,31,10,11,12.20
2016,03,31,10,12,12.20
2016,03,31,10,13,12.20
2016,03,31,10,14,12.30
2016,03,31,10,15,12.30
2016,03,31,10,16,12.30
2016,03,31,10,17,12.40
2016,03,31,10,18,12.40
2016,03,31,10,19,12.50
2016,03,31,10,20,12.60
2016,03,31,10,21,12.60
2016,03,31,10,22,12.70
2016,03,31,10,23,12.80
2016,03,31,10,24,12.90
2016,03,31,10,25,12.90
2016,03,31,10,26,13.00
2016,03,31,10,27,13.10
2016,03,31,10,28,13.20
2016,03,31,10,29,13.20
2016,03,31,10,30,13.30
2016,03,31,10,31,13.30
2016,03,31,10,32,13.40
2016,03,31,10,33,13.50
2016,03,31,10,34,13.50
2016,03,31,10,35,13.50
2016,03,31,10,36,13.50
2016,03,31,10,37,13.50
2016,03,31,10,38,13.50
2016,03,31,10,39,13.50
2016,03,31,10,40,13.50
2016,03,31,10,41,13.50
2016,03,31,10,42,13.50
2016,03,31,10,43,13.40
2016,03,31,10,44,13.40
2016,03,31,10,45,13.40
2016,03,31,10,46,13.30
2016,03,31,10,47,13.30
2016,03,31,10,48,13.30
2016,03,31,10,49,13.30
2016,03,31,10,50,13.30
2016,03,31,10,51,13.30
2016,03,31,10,52,13.30
2016,03,31,10,53,13.30
2016,03,31,10,54,13.40
2016,03,31,10,55,13.40
2016,03,31,10,56,13.40
2016,03,31,10,57,13.40
2016,03,31,10,58,13.50
2016,03,31,10,59,13.60
2016,03,31,11,00,13.60
2016,03,31,11,01,13.60
2016,03,31,11,02,13.60
2016,03,31,11,03,13.70
2016,03,31,11,04,13.70
2016,03,31,11,05,13.80
2016,03,31,11,06,13.80
2016,03,31,11,07,13.80
2016,03,31,11,08,13.90
2016,03,31,11,09,13.90
2016,03,31,11,10,13.90
2016,03,31,11,11,13.90
2016,03,31,11,12,13.90
2016,03,31,11,13,13.90
2016,03,31,11,14,13.90
2016,03,31,11,15,14.00
2016,03,31,11,16,14.10
2016,03,31,11,17,14.10
2016,03,31,11,18,14.10
2016,03,31,11,19,14.10
2016,03,31,11,20,14.20
2016,03,31,11,21,14.20
2016,03,31,11,22,14.20
2016,03,31,11,23,14.20
2016,03,31,11,24,14.30
2016,03,31,11,25,14.30
2016,03,31,11,26,14.40
2016,03,31,11,27,14.40
2016,03,31,11,28,14.50
2016,03,31,11,29,14.50
2016,03,31,11,30,14.60
2016,03,31,11,31,14.60
2016,03,31,11,32,14.70
2016,03,31,11,33,14.70
2016,03,31,11,34,14.80
2016,03,31,11,35,14.80
2016,03,31,11,36,14.80
2016,03,31,11,37,14.80
2016,03,31,11,38,14.90
2016,03,31,11,39,14.90
2016,03,31,11,40,15.00
2016,03,31,11,41,15.00
2016,03,31,11,42,15.00
2016,03,31,11,43,15.00
2016,03,31,11,44,15.00
2016,03,31,11,45,15.00
2016,03,31,11,46,15.10
2016,03,31,11,47,15.20
2016,03,31,11,48,15.30
2016,03,31,11,49,15.40
2016,03,31,11,50,15.50
2016,03,31,11,51,15.60
2016,03,31,11,52,15.70
2016,03,31,11,53,15.70
2016,03,31,11,54,15.80
2016,03,31,11,55,15.90
2016,03,31,11,56,15.90
2016,03,31,11,57,16.00
2016,03,31,11,58,16.10
2016,03,31,11,59,16.10
2016,03,31,12,00,16.10
2016,03,31,12,01,16.20
2016,03,31,12,02,16.20
2016,03,31,12,03,16.20
2016,03,31,12,04,16.20
2016,03,31,12,05,16.30
2016,03,31,12,06,16.30
2016,03,31,12,07,16.40
2016,03,31,12,08,16.50
2016,03,31,12,09,16.60
2016,03,31,12,10,16.60
2016,03,31,12,11,16.60
2016,03,31,12,12,16.60
2016,03,31,12,13,16.60
2016,03,31,12,14,16.70
2016,03,31,12,15,16.70
2016,03,31,12,16,16.70
2016,03,31,12,17,16.70
2016,03,31,12,18,16.70
2016,03,31,12,19,16.70
2016,03,31,12,20,16.80
2016,03,31,12,21,16.80
2016,03,31,12,22,16.80
2016,03,31,12,23,16.80
2016,03,31,12,24,16.80
2016,03,31,12,25,16.80
2016,03,31,12,26,16.80
2016,03,31,12,27,16.80
2016,03,31,12,28,16.80
2016,03,31,12,29,16.70
2016,03,31,12,30,16.70
2016,03,31,12,31,16.70
2016,03,31,12,32,16.60
2016,03,31,12,33,16.60
2016,03,31,12,34,16.70
2016,03,31,12,35,16.70
2016,03,31,12,36,16.70
2016,03,31,12,37,16.80
2016,03,31,12,38,16.80
2016,03,31,12,39,16.70
2016,03,31,12,40,16.70
2016,03,31,12,41,16.70
2016,03,31,12,42,16.70
2016,03,31,12,43,16.60
2016,03,31,12,44,16.60
2016,03,31,12,45,16.60
2016,03,31,12,46,16.70
2016,03,31,12,47,16.70
2016,03,31,12,48,16.70
2016,03,31,12,49,16.80
2016,03,31,12,50,16.80
2016,03,31,12,51,16.90
2016,03,31,12,52,17.00
2016,03,31,12,53,17.10
2016,03,31,12,54,17.10
2016,03,31,12,55,17.20
2016,03,31,12,56,17.20
2016,03,31,12,57,17.30
2016,03,31,12,58,17.30
2016,03,31,12,59,17.40
2016,03,31,13,00,17.40
2016,03,31,13,01,17.40
2016,03,31,13,02,17.50
2016,03,31,13,03,17.50
2016,03,31,13,04,17.60
2016,03,31,13,05,17.70
2016,03,31,13,06,17.80
2016,03,31,13,07,17.80
2016,03,31,13,08,17.80
2016,03,31,13,09,17.90
2016,03,31,13,10,18.00
2016,03,31,13,11,18.00
2016,03,31,13,12,18.00
2016,03,31,13,13,18.10
2016,03,31,13,14,18.20
2016,03,31,13,15,18.20
2016,03,31,13,16,18.20
2016,03,31,13,17,18.20
2016,03,31,13,18,18.20
2016,03,31,13,19,18.20
2016,03,31,13,20,18.20
2016,03,31,13,21,18.30
2016,03,31,13,22,18.30
2016,03,31,13,23,18.30
2016,03,31,13,24,18.30
2016,03,31,13,25,18.30
2016,03,31,13,26,18.20
2016,03,31,13,27,18.20
2016,03,31,13,28,18.20
2016,03,31,13,29,18.20
2016,03,31,13,30,18.20
2016,03,31,13,31,18.20
2016,03,31,13,32,18.20
2016,03,31,13,33,18.20
2016,03,31,13,34,18.20
2016,03,31,13,35,18.20
2016,03,31,13,36,18.20
2016,03,31,13,37,18.20
2016,03,31,13,38,18.20
2016,03,31,13,39,18.20
2016,03,31,13,40,18.20
2016,03,31,13,41,18.20
2016,03,31,13,42,18.30
2016,03,31,13,43,18.30
2016,03,31,13,44,18.40
2016,03,31,13,45,18.50
2016,03,31,13,46,18.60
2016,03,31,13,47,18.50
2016,03,31,13,48,18.50
2016,03,31,13,49,18.50
2016,03,31,13,50,18.40
2016,03,31,13,51,18.40
2016,03,31,13,52,18.30
2016,03,31,13,53,18.40
2016,03,31,13,54,18.40
2016,03,31,13,55,18.40
2016,03,31,13,56,18.50
2016,03,31,13,57,18.60
2016,03,31,13,58,18.60
2016,03,31,13,59,18.60
2016,03,31,14,00,18.70
2016,03,31,14,01,18.70
2016,03,31,14,02,18.80
2016,03,31,14,03,18.80
2016,03,31,14,04,18.80
2016,03,31,14,05,18.80
2016,03,31,14,06,18.80
2016,03,31,14,07,18.80
2016,03,31,14,08,18.80
2016,03,31,14,09,18.80
2016,03,31,14,10,18.80
2016,03,31,14,11,18.90
2016,03,31,14,12,18.90
2016,03,31,14,13,18.90
2016,03,31,14,14,18.90
2016,03,31,14,15,18.90
2016,03,31,14,16,18.90
2016,03,31,14,17,18.90
2016,03,31,14,18,18.90
2016,03,31,14,19,18.90
2016,03,31,14,20,18.80
2016,03,31,14,21,18.80
2016,03,31,14,22,18.80
2016,03,31,14,23,18.90
2016,03,31,14,24,18.90
2016,03,31,14,25,18.90
2016,03,31,14,26,19.00
2016,03,31,14,27,19.00
2016,03,31,14,28,19.10
2016,03,31,14,29,19.10
2016,03,31,14,30,19.20
2016,03,31,14,31,19.20
2016,03,31,14,32,19.20
2016,03,31,14,33,19.20
2016,03,31,14,34,19.10
2016,03,31,14,35,19.10
2016,03,31,14,36,19.10
2016,03,31,14,37,19.10
2016,03,31,14,38,19.10
2016,03,31,14,39,19.10
2016,03,31,14,40,19.20
2016,03,31,14,41,19.20
2016,03,31,14,42,19.30
2016,03,31,14,43,19.30
2016,03,31,14,44,19.40
2016,03,31,14,45,19.40
2016,03,31,14,46,19.40
2016,03,31,14,47,19.40
2016,03,31,14,48,19.30
2016,03,31,14,49,19.30
2016,03,31,14,50,19.30
2016,03,31,14,51,19.20
2016,03,31,14,52,19.20
2016,03,31,14,53,19.20
2016,03,31,14,54,19.10
2016,03,31,14,55,19.10
2016,03,31,14,56,19.10
2016,03,31,14,57,19.10
2016,03,31,14,58,19.10
2016,03,31,14,59,19.10
2016,03,31,15,00,19.20
2016,03,31,15,01,19.20
2016,03,31,15,02,19.30
2016,03,31,15,03,19.30
2016,03,31,15,04,19.40
2016,03,31,15,05,19.40
2016,03,31,15,06,19.50
2016,03,31,15,07,19.50
2016,03,31,15,08,19.60
2016,03,31,15,09,19.60
2016,03,31,15,10,19.70
2016,03,31,15,11,19.70
2016,03,31,15,12,19.60
2016,03,31,15,13,19.50
2016,03,31,15,14,19.50
2016,03,31,15,15,19.50
2016,03,31,15,16,19.40
2016,03,31,15,17,19.40
2016,03,31,15,18,19.30
2016,03,31,15,19,19.30
2016,03,31,15,20,19.30
2016,03,31,15,21,19.30
2016,03,31,15,22,19.30
2016,03,31,15,23,19.40
2016,03,31,15,24,19.40
2016,03,31,15,25,19.50
2016,03,31,15,26,19.50
2016,03,31,15,27,19.60
2016,03,31,15,28,19.50
2016,03,31,15,29,19.60
2016,03,31,15,30,19.60
2016,03,31,15,31,19.60
2016,03,31,15,32,19.60
2016,03,31,15,33,19.70
2016,03,31,15,34,19.70
2016,03,31,15,35,19.70
2016,03,31,15,36,19.80
2016,03,31,15,37,19.80
2016,03,31,15,38,19.80
2016,03,31,15,39,19.80
2016,03,31,15,40,19.80
2016,03,31,15,41,19.80
2016,03,31,15,42,19.80
2016,03,31,15,43,19.80
2016,03,31,15,44,19.80
2016,03,31,15,45,19.90
2016,03,31,15,46,19.90
2016,03,31,15,47,19.90
2016,03,31,15,48,19.90
2016,03,31,15,49,19.90
2016,03,31,15,50,19.90
2016,03,31,15,51,19.90
2016,03,31,15,52,19.90
2016,03,31,15,53,19.90
2016,03,31,15,54,19.90
2016,03,31,15,55,19.90
2016,03,31,15,56,19.80
2016,03,31,15,57,19.80
2016,03,31,15,58,19.80
2016,03,31,15,59,19.80
2016,03,31,16,00,19.70
2016,03,31,16,01,19.70
2016,03,31,16,02,19.70
2016,03,31,16,03,19.70
2016,03,31,16,04,19.70
2016,03,31,16,05,19.70
2016,03,31,16,06,19.70
2016,03,31,16,07,19.70
2016,03,31,16,08,19.70
2016,03,31,16,09,19.70
2016,03,31,16,10,19.70
2016,03,31,16,11,19.80
2016,03,31,16,12,19.80
2016,03,31,16,13,19.90
2016,03,31,16,14,19.90
2016,03,31,16,15,19.90
2016,03,31,16,16,19.90
2016,03,31,16,17,20.00
2016,03,31,16,18,20.00
2016,03,31,16,19,20.00
2016,03,31,16,20,20.00
2016,03,31,16,21,20.00
2016,03,31,16,22,20.00
2016,03,31,16,23,20.00
2016,03,31,16,24,20.00
2016,03,31,16,25,20.00
2016,03,31,16,26,20.00
2016,03,31,16,27,19.90
2016,03,31,16,28,19.90
2016,03,31,16,29,19.90
2016,03,31,16,30,19.80
2016,03,31,16,31,19.70
2016,03,31,16,32,19.70
2016,03,31,16,33,19.60
2016,03,31,16,34,19.60
2016,03,31,16,35,19.60
2016,03,31,16,36,19.60
2016,03,31,16,37,19.60
2016,03,31,16,38,19.60
2016,03,31,16,39,19.60
2016,03,31,16,40,19.70
2016,03,31,16,41,19.70
2016,03,31,16,42,19.80
2016,03,31,16,43,19.80
2016,03,31,16,44,19.80
2016,03,31,16,45,19.80
2016,03,31,16,46,19.90
2016,03,31,16,47,19.90
2016,03,31,16,48,19.90
2016,03,31,16,49,19.90
2016,03,31,16,50,20.00
2016,03,31,16,51,20.00
2016,03,31,16,52,20.00
2016,03,31,16,53,20.00
2016,03,31,16,54,19.90
2016,03,31,16,55,19.90
2016,03,31,16,56,19.90
2016,03,31,16,57,19.80
2016,03,31,16,58,19.80
2016,03,31,16,59,19.70
2016,03,31,17,00,19.70
2016,03,31,17,01,19.70
2016,03,31,17,02,19.60
2016,03,31,17,03,19.60
2016,03,31,17,04,19.50
2016,03,31,17,05,19.40
2016,03,31,17,06,19.40
2016,03,31,17,07,19.40
2016,03,31,17,08,19.40
2016,03,31,17,09,19.40
2016,03,31,17,10,19.40
2016,03,31,17,11,19.40
2016,03,31,17,12,19.40
2016,03,31,17,13,19.40
2016,03,31,17,14,19.40
2016,03,31,17,15,19.40
2016,03,31,17,16,19.50
2016,03,31,17,17,19.50
2016,03,31,17,18,19.50
2016,03,31,17,19,19.50
2016,03,31,17,20,19.50
2016,03,31,17,21,19.50
2016,03,31,17,22,19.50
2016,03,31,17,23,19.40
2016,03,31,17,24,19.40
2016,03,31,17,25,19.40
2016,03,31,17,26,19.40
2016,03,31,17,27,19.40
2016,03,31,17,28,19.40
2016,03,31,17,29,19.40
2016,03,31,17,30,19.40
2016,03,31,17,31,19.40
2016,03,31,17,32,19.40
2016,03,31,17,33,19.40
2016,03,31,17,34,19.40
2016,03,31,17,35,19.40
2016,03,31,17,36,19.40
2016,03,31,17,37,19.40
2016,03,31,17,38,19.40
2016,03,31,17,39,19.40
2016,03,31,17,40,19.40
2016,03,31,17,41,19.40
2016,03,31,17,42,19.40